Location: Gajan
(43.0218°N, 1.1244°E)
Time: 07:58:04
(UTC+00:00)

Meteor 2-21 - Pass Details

Date: 22 April 2021
Orbit: 933 x 967 km, 82.5° (Epoch: 08 May)

Event Time Altitude Azimuth Distance (km) Brightness Sun altitude
Rises 20:21:09 0° 352° (N) 3,601 8.2 -16.3°
Reaches altitude 10° 20:23:38 10° 353° (N) 2,654 7.4 -16.6°
Maximum altitude 20:29:43 82° 82° (E) 953 4.3 -17.5°
Enters shadow 20:34:06 20° 169° (S) 2,032 5.7 -18.2°
